This is the latest recevied weather packets stored in our database for station/object N4BBA. If no packets are shown the sender has not sent any weather packets the latest 10 day(s).
| Time | Temp. | Humidity | Pressure | Rain* | Wind** | Luminosity | Snow |
|---|---|---|---|---|---|---|---|
| 1777934060 | 25° C | 36% | 1013 hPa | 0 mm | - | 138 W/m² | - |
| 1777933756 | 25° C | 36% | 1013 hPa | 0 mm | - | 148 W/m² | - |
| 1777933454 | 25.56° C | 36% | 1013.1 hPa | 0 mm | - | 164 W/m² | - |
| 1777933151 | 25.56° C | 35% | 1012.9 hPa | 0 mm | - | 175 W/m² | - |
| 1777932848 | 25.56° C | 35% | 1012.8 hPa | 0 mm | - | 191 W/m² | - |
| 1777932545 | 25.56° C | 35% | 1012.9 hPa | 0 mm | - | 207 W/m² | - |
| 1777932241 | 26.11° C | 36% | 1013.1 hPa | 0 mm | - | 216 W/m² | - |
| 1777931939 | 25.56° C | 35% | 1013.1 hPa | 0 mm | - | 234 W/m² | - |
| 1777931635 | 25.56° C | 35% | 1012.9 hPa | 0 mm | - | 251 W/m² | - |
| 1777931331 | 26.11° C | 34% | 1013.2 hPa | 0 mm | - | 270 W/m² | - |
| 1777931028 | 26.11° C | 35% | 1013.1 hPa | 0 mm | - | 285 W/m² | - |
| 1777930725 | 26.11° C | 34% | 1012.9 hPa | 0 mm | - | 294 W/m² | - |
| 1777930421 | 26.11° C | 34% | 1013 hPa | 0 mm | - | 297 W/m² | - |
| 1777930119 | 26.11° C | 34% | 1013 hPa | 0 mm | - | 332 W/m² | - |
| 1777929814 | 26.11° C | 34% | 1013.2 hPa | 0 mm | - | 349 W/m² | - |
| 1777929513 | 26.11° C | 33% | 1013.2 hPa | 0 mm | - | 371 W/m² | - |
| 1777929208 | 26.11° C | 33% | 1013 hPa | 0 mm | - | 391 W/m² | - |
| 1777928906 | 26.67° C | 34% | 1013 hPa | 0 mm | - | 408 W/m² | - |
| 1777928603 | 26.67° C | 33% | 1013 hPa | 0 mm | - | 401 W/m² | - |
| 1777928300 | 26.67° C | 34% | 1013 hPa | 0 mm | - | 447 W/m² | - |
| 1777927997 | 26.11° C | 33% | 1013 hPa | 0 mm | - | 447 W/m² | - |
| 1777927695 | 26.67° C | 33% | 1013.1 hPa | 0 mm | - | 471 W/m² | - |
| 1777927394 | 26.11° C | 33% | 1013 hPa | 0 mm | - | 486 W/m² | - |
| 1777927093 | 26.11° C | 33% | 1013.4 hPa | 0 mm | - | 501 W/m² | - |
| 1777926789 | 26.11° C | 33% | 1013.4 hPa | 0 mm | - | 509 W/m² | - |
* Rain latest hour (hover to see other rain measurements)
** Current wind speed in m/s (hover to see current wind gust speed)